Renton, WA
on Wednesday, November 28, 2012

Wednesday
Previous Day Next Day
Daily Summary
 ActualAverage (KSEA)Record (KSEA)
Temperature
Mean Temperature °F 43°F  
Max Temperature 51°F 48°F 59°F (1999)
Min Temperature 39°F 37°F 17°F (1952)
Degree Days
Heating Degree Days 20 22  
Month to date heating degree days 541  
Since 1 July heating degree days 1138  
Cooling Degree Days 0 0  
Month to date cooling degree days 0  
Year to date cooling degree days 189  
Moisture
Dew Point 40°F   
Average Humidity 82    
Maximum Humidity 89    
Minimum Humidity 68    
Precipitation
Precipitation 0.09 in 0.21 in 1.55 in (1995)
Month to date precipitation 6.12  
Year to date precipitation 31.69  
Snow
Snow 0.00 in in T in (2006)
Month to date snowfall  
Since 1 July snowfall  
Snow Depth in   
Wind
Wind Speed 3 mph   
Max Wind Speed 7 mph   
Max Gust Speed mph   
Visibility 9 miles   
Events Rain   

Key: T is trace of precipitation, MM is missing value
Source: NWS Daily Summary
Time(PST)TemperatureDew PointHumidity Pressure Visibility Wind DirectionWind SpeedGust SpeedPrecipitationEvents Conditions
12:53 AM 45.0°F 39.0°F 80% 29.89 in 10.0 miles NW 6.9 mph - N/A   Clear
1:53 AM 41.0°F 37.0°F 86% 29.89 in 9.0 miles SSE 4.6 mph - N/A   Clear
2:53 AM 39.9°F 37.0°F 89% 29.86 in 6.0 miles Calm Calm - N/A   Clear
3:53 AM 39.0°F 36.0°F 89% 29.84 in 6.0 miles Calm Calm - N/A   Clear
4:53 AM 39.0°F 36.0°F 89% 29.82 in 6.0 miles Calm Calm - N/A   Overcast
5:53 AM 41.0°F 37.0°F 86% 29.81 in 10.0 miles Calm Calm - N/A   Scattered Clouds
6:53 AM 39.0°F 36.0°F 89% 29.78 in 10.0 miles Calm Calm - N/A   Clear
7:53 AM 39.0°F 35.1°F 86% 29.75 in 9.0 miles Calm Calm - N/A   Partly Cloudy
8:53 AM 42.1°F 37.9°F 85% 29.75 in 9.0 miles Calm Calm - N/A   Overcast
9:53 AM 45.0°F 39.0°F 80% 29.70 in 10.0 miles WNW 6.9 mph - N/A   Overcast
10:53 AM 46.9°F 39.0°F 74% 29.68 in 10.0 miles WNW 6.9 mph - N/A   Scattered Clouds
11:53 AM 48.9°F 39.9°F 71% 29.66 in 10.0 miles NW 6.9 mph - N/A   Overcast
12:53 PM 48.0°F 39.9°F 74% 29.65 in 10.0 miles Variable 3.5 mph - 0.00 in   Overcast
1:53 PM 48.0°F 42.1°F 80% 29.65 in 5.0 miles Calm Calm - 0.03 in Rain Light Rain
2:53 PM 48.0°F 43.0°F 83% 29.62 in 6.0 miles NNW 4.6 mph - 0.04 in Rain Light Rain
3:53 PM 48.0°F 43.0°F 83% 29.64 in 10.0 miles NNW 3.5 mph - 0.01 in Rain Light Rain
4:53 PM 50.0°F 43.0°F 77% 29.64 in 10.0 miles Variable 4.6 mph - 0.00 in   Overcast
5:53 PM 51.1°F 41.0°F 68% 29.65 in 10.0 miles ESE 3.5 mph - N/A   Overcast
6:53 PM 48.9°F 42.1°F 77% 29.68 in 10.0 miles SSE 4.6 mph - 0.01 in   Overcast
7:53 PM 48.0°F 43.0°F 83% 29.70 in 10.0 miles SE 3.5 mph - 0.00 in Rain Light Rain
8:53 PM 48.0°F 43.0°F 83% 29.72 in 9.0 miles SSE 5.8 mph - N/A   Overcast
9:53 PM 46.0°F 42.1°F 86% 29.75 in 7.0 miles Calm Calm - N/A   Partly Cloudy
10:53 PM 46.0°F 41.0°F 83% 29.74 in 10.0 miles Calm Calm - N/A   Mostly Cloudy
11:53 PM 46.0°F 42.1°F 86% 29.73 in 10.0 miles Calm Calm - 0.00 in   Overcast
Moon Phase
Nov. 28 Dec. 06 Dec. 13 Dec. 20 Dec. 28
Sunrise:07:32 AM (PST) Moon Rise:04:39 PM (PST)11/28
Sunset:04:21 PM (PST) Moon Set:07:35 AM (PST)11/28

Copyright © 2014 The Weather Underground, Inc.